Regional Weather Roundup
Issued by NWS

Home | Current Version | Previous Version | Graphics & Text | Print | Product List | Glossary On
Versions: 1 2 3 4 5 6 7 8 9 10 11 12 13 14 15 16 17 18 19 20 21 22 23 24 25 26 27 28 29 30 31 32 33 34 35 36 37 38 39 40 41 42 43 44 45 46 47 48 49 50
000
ASUS43 KDTX 020501
RWRMI
MICHIGAN HOURLY REGIONAL WEATHER ROUNDUP
NATIONAL WEATHER SERVICE DETROIT/PONTIAC MI
100 AM EDT SAT AUG 02 2014

NOTE: "FAIR" INDICATES FEW OR NO CLOUDS BELOW 12,000 FEET WITH NO
SIGNIFICANT WEATHER AND/OR OBSTRUCTION TO VISIBILITY.

MIZ047>049-052>055-059>063-066>070-074>076-081>083-020600-
SOUTHEAST LOWER MICHIGAN

CITY           SKY/WX    TMP DP  RH WIND       PRES   REMARKS
ADRIAN         PTCLDY    62  60  93 CALM      30.11S FOG
ALMA           PTCLDY    58  56  94 CALM      30.12R FOG
ANN ARBOR      PTCLDY    65  60  84 N3        30.11R
BAD AXE        PTCLDY    63  63 100 CALM      30.12S FOG
CARO           CLEAR     62  62  98 CALM      30.11S FOG
DETROIT CITY   PTCLDY    72  62  71 CALM      30.09S
DETROIT        MOCLDY    68  63  84 CALM      30.10S
FLINT          PTCLDY    62  57  83 CALM      30.11S
GROSSE ILE     CLEAR     66  64  94 CALM      30.09R FOG
HILLSDALE      PTCLDY    59  58  99 CALM      30.12R
HOWELL         PTCLDY    61  57  88 SE3       30.12R

CITY           SKY/WX    TMP DP  RH WIND       PRES   REMARKS
JACKSON        MOCLDY    64  58  80 CALM      30.13R
LAMBERTVILLE   PTCLDY    63  59  88 CALM      30.10S FOG
LANSING        CLEAR     57  55  93 CALM      30.13R
LAPEER         FAIR      63  61  94 CALM      30.12S FOG
MASON          PTCLDY    58  56  95 CALM      30.12S
MONROE         CLEAR     63  61  94 CALM      30.08F FOG
PONTIAC        PTCLDY    66  61  84 W5        30.11R
PORT HOPE        N/A     64  61  90 CALM      30.10R
PORT HURON     PTCLDY    61  61 100 CALM      30.10S FOG
TRI CITIES     PTCLDY    64  59  83 N3        30.12R
TROY           PTCLDY    68  64  86 CALM      30.11S
SAGINAW HB     CLEAR     63  63 100 CALM      30.11R
$$
MIZ043>046-050>051-056>058-064>065-071>073-077>080-020600-
SOUTHWEST LOWER MICHIGAN

CITY           SKY/WX    TMP DP  RH WIND       PRES   REMARKS
BATTLE CREEK   PTCLDY    64  58  80 NE3       30.13R
BENTON HARBOR  MOCLDY    59  58  96 E3        30.11S FOG
BIG RAPIDS     CLEAR    N/A N/A N/A CALM      30.12S
COLDWATER      PTCLDY    63  62  96 CALM      30.11S FOG
FREMONT        FAIR      60  59  97 CALM      30.11S
HOLLAND        PTCLDY    62  58  86 CALM      30.12S
GRAND RAPIDS   CLEAR     62  58  86 S3        30.12R
IONIA          FAIR      58  57  97 SE5       30.11S
KALAMAZOO      PTCLDY    63  59  87 CALM      30.12R
LUDINGTON      PTCLDY    57  56  95 CALM      30.11
MARSHALL       PTCLDY    62  56  83 CALM      30.12R
MOUNT PLEASANT PTCLDY    59  57  92 E3        30.11R
MUSKEGON       PTCLDY    62  59  90 CALM      30.11S FOG
SOUTH HAVEN    MOCLDY    59  59 100 CALM      30.11F FOG
$$
MIZ016>042-020600-
NORTHERN LOWER MICHIGAN

CITY           SKY/WX    TMP DP  RH WIND       PRES   REMARKS
ALPENA         CLOUDY    62  57  83 CALM      30.12F
BEAVER ISLAND  PTCLDY    63  57  80 E5        30.11S
BELLAIRE       MOCLDY    60  57  89 CALM      30.09S
CADILLAC       PTCLDY    57  56  97 CALM      30.12R
CHARLEVOIX     PTCLDY    64  56  75 CALM      30.13R
FRANKFORT      PTCLDY    58  54  88 CALM      30.10S
GAYLORD        MOCLDY    62  58  86 CALM      30.12S
GRAYLING       MOCLDY    59  59 100 CALM      30.12F
HARBOR SPRINGS MOCLDY    65  53  65 NE6       30.11R
HOUGHTON LAKE  PTCLDY    58  57  97 CALM      30.12S
MANISTEE       CLEAR     59  57  94 CALM      30.11S
OSCODA         PTCLDY    60  59  97 CALM      30.11F
PELLSTON       MOCLDY    55  53  93 CALM      30.12S
ROGERS CITY    MOCLDY    64  57  77 S7        30.13S
TRAVERSE CITY  MOCLDY    61  55  81 CALM      30.09S
$$
MIZ007>008-015-020600-
EASTERN UPPER MICHIGAN

CITY           SKY/WX    TMP DP  RH WIND       PRES   REMARKS
KINROSS        PTCLDY    55  54  94 CALM      30.13S
MACKINAC ISLAN PTCLDY    59  54  82 NE6       30.12S
NEWBERRY       PTCLDY    53  51  94 CALM      30.13S
S. S. MARIE    PTCLDY    55  49  80 CALM      30.12S
$$
MIZ004>006-011>014-085-020600-
CENTRAL UPPER MICHIGAN

CITY           SKY/WX    TMP DP  RH WIND       PRES   REMARKS
MANISTIQUE     PTCLDY    57  52  85 E5        30.11F
ESCANABA       PTCLDY    55  52  88 CALM      30.11S
MENOMINEE      CLEAR     63  61  94 NE5       30.08S
SAWYER-GWINN   MOCLDY    59  50  72 CALM      30.14R
$$
MIZ001>003-009>011-084-020600-
WESTERN UPPER MICHIGAN

CITY           SKY/WX    TMP DP  RH WIND       PRES   REMARKS
IRON MOUNTAIN  PTCLDY    59  52  77 CALM      30.11S
HOUGHTON       CLEAR     53  48  83 CALM      30.12S
COPPER HARBOR    N/A     59  49  69 SW10      30.11R
IRONWOOD       CLEAR     54  54 100 E3        30.10S
$$

ABBREVIATIONS USED IN REMARKS
   TC - TEMPERATURE IN CELSIUS
  WCI - WIND CHILL INDEX
   HX - HEAT INDEX
  VSB - VISIBILITY



USA.gov is the U.S. government's official web portal to all federal, state and local government web resources and services.